sat.trackr.live / text

‹ back to catalog

STARLINK-32231

NORAD 60439 · 2024-144Q

PAYLOAD ACTIVE UNKNOWN

§ Identity

Operator
Country
US
Launch date
2024-08-12
Launch site
AFETR
Launch vehicle
Mass (kg)
RCS (m²)

Purposes: comms

External: N2YO · Heavens-Above · Gunter

§ Orbital elements

Epoch: 2026-05-24T22:25:55.202016Z

Period
93.85 min
Inclination
53.1607°
Eccentricity
0.0001590
Mean motion
15.34374057 rev/d
Perigee alt
461.7 km
Apogee alt
463.9 km
Semi-major
6,840.9 km
B*
-5.4354e-5
RAAN
222.1949°
Arg perigee
95.2511°
Mean anomaly
264.8673°
Rev number
10,009

§ Raw data

STARLINK-322311 60439U 24144Q   26144.93466669 -.00002211  00000+0 -54354-4 0  99952 60439  53.1607 222.1949 0001590  95.2511 264.8673 15.34374057100098

JSON: /api/v1/satellites/60439 · /tle

For live sub-satellite position, see the globe view (requires WebGL).

§ Visibility from observer

Set your observer location to see the next 7 days of passes ≥ 10°. The values pass through the URL so the page stays shareable.

No JS? Fill the form by hand. The geolocation button needs JavaScript.